TimeCST,TemperatureF,Dew PointF,Humidity,Sea Level PressureIn,VisibilityMPH,Wind Direction,Wind SpeedMPH,Gust SpeedMPH,PrecipitationIn,Events,Conditions,WindDirDegrees,DateUTC
12:13 AM,-5.8,-11.2,77,30.23,10.0,WNW,8.1,-,N/A,,Scattered Clouds,300,2013-01-20 06:13:00
12:32 AM,-5.8,-11.2,77,30.23,10.0,NW,6.9,-,N/A,,Scattered Clouds,310,2013-01-20 06:32:00
12:53 AM,-5.8,-11.2,77,30.24,10.0,WNW,5.8,-,N/A,,Scattered Clouds,290,2013-01-20 06:53:00
1:13 AM,-5.8,-11.2,77,30.23,10.0,NW,4.6,-,N/A,,Scattered Clouds,310,2013-01-20 07:13:00
1:33 AM,-7.6,-11.2,84,30.23,10.0,NW,6.9,-,N/A,,Clear,320,2013-01-20 07:33:00
1:52 AM,-7.6,-11.2,84,30.24,10.0,NW,5.8,-,N/A,,Clear,310,2013-01-20 07:52:00
2:13 AM,-7.6,-13.0,77,30.26,10.0,WNW,8.1,-,N/A,,Clear,300,2013-01-20 08:13:00
2:33 AM,-7.6,-13.0,77,30.27,10.0,WNW,4.6,-,N/A,,Clear,300,2013-01-20 08:33:00
2:53 AM,-7.6,-14.8,71,30.28,10.0,WNW,8.1,-,N/A,,Clear,300,2013-01-20 08:53:00
3:13 AM,-7.6,-14.8,71,30.28,10.0,WNW,6.9,-,N/A,,Clear,290,2013-01-20 09:13:00
3:33 AM,-9.4,-14.8,77,30.28,10.0,WNW,5.8,-,N/A,,Clear,290,2013-01-20 09:33:00
3:53 AM,-9.4,-14.8,77,30.29,10.0,NW,5.8,-,N/A,,Clear,310,2013-01-20 09:53:00
4:12 AM,-9.4,-14.8,77,30.28,10.0,WNW,4.6,-,N/A,,Clear,300,2013-01-20 10:12:00
4:33 AM,-9.4,-14.8,77,30.28,10.0,WNW,5.8,-,N/A,,Clear,300,2013-01-20 10:33:00
4:53 AM,-9.4,-14.8,77,30.28,10.0,WNW,5.8,-,N/A,,Clear,300,2013-01-20 10:53:00
5:13 AM,-9.4,-16.6,71,30.29,10.0,WNW,3.5,-,N/A,,Clear,290,2013-01-20 11:13:00
5:33 AM,-11.2,-16.6,77,30.28,10.0,WNW,3.5,-,N/A,,Clear,290,2013-01-20 11:33:00
5:53 AM,-11.2,-16.6,77,30.28,10.0,Calm,Calm,-,N/A,,Clear,0,2013-01-20 11:53:00
6:13 AM,-11.2,-16.6,77,30.28,10.0,Calm,Calm,-,N/A,,Clear,0,2013-01-20 12:13:00
6:33 AM,-11.2,-16.6,77,30.27,10.0,Calm,Calm,-,N/A,,Clear,0,2013-01-20 12:33:00
6:53 AM,-13.0,-18.4,77,30.28,10.0,Calm,Calm,-,N/A,,Clear,0,2013-01-20 12:53:00
7:12 AM,-14.8,-18.4,84,30.28,10.0,Calm,Calm,-,N/A,,Clear,0,2013-01-20 13:12:00
7:32 AM,-14.8,-18.4,84,30.28,10.0,Calm,Calm,-,N/A,,Clear,0,2013-01-20 13:32:00
7:53 AM,-14.8,-20.2,77,30.29,10.0,Calm,Calm,-,N/A,,Clear,0,2013-01-20 13:53:00
8:13 AM,-13.0,-18.4,77,30.30,10.0,WNW,3.5,-,N/A,,Clear,290,2013-01-20 14:13:00
8:32 AM,-13.0,-18.4,77,30.31,10.0,Calm,Calm,-,N/A,,Clear,0,2013-01-20 14:32:00
8:53 AM,-11.2,-16.6,77,30.32,10.0,West,4.6,-,N/A,,Clear,280,2013-01-20 14:53:00
9:12 AM,-9.4,-16.6,71,30.32,10.0,West,4.6,-,N/A,,Scattered Clouds,280,2013-01-20 15:12:00
9:33 AM,-9.4,-14.8,77,30.33,5.0,West,3.5,-,N/A,Snow,Light Snow,270,2013-01-20 15:33:00
9:53 AM,-9.4,-14.8,77,30.33,2.0,WNW,6.9,-,N/A,,Haze,290,2013-01-20 15:53:00
10:13 AM,-7.6,-14.8,71,30.33,3.0,West,5.8,-,N/A,,Haze,260,2013-01-20 16:13:00
10:33 AM,-7.6,-13.0,77,30.33,3.0,West,4.6,-,N/A,,Haze,270,2013-01-20 16:33:00
10:52 AM,-5.8,-13.0,71,30.31,4.0,West,5.8,-,N/A,,Haze,280,2013-01-20 16:52:00
11:12 AM,-5.8,-11.2,77,30.32,5.0,WNW,5.8,-,N/A,,Haze,290,2013-01-20 17:12:00
11:33 AM,-5.8,-11.2,77,30.31,3.0,WSW,6.9,-,N/A,,Haze,250,2013-01-20 17:33:00
11:52 AM,-4.0,-11.2,71,30.30,3.0,West,5.8,-,N/A,,Haze,280,2013-01-20 17:52:00
12:13 PM,-2.2,-9.4,71,30.30,3.0,West,6.9,-,N/A,Snow,Light Snow,260,2013-01-20 18:13:00
12:33 PM,-2.2,-9.4,71,30.29,3.0,West,4.6,-,N/A,Snow,Light Snow,260,2013-01-20 18:33:00
12:53 PM,-0.4,-9.4,66,30.28,4.0,West,5.8,-,N/A,,Haze,280,2013-01-20 18:53:00
1:12 PM,-0.4,-9.4,66,30.27,10.0,West,10.4,-,N/A,,Overcast,280,2013-01-20 19:12:00
1:53 PM,-0.4,-9.4,66,30.26,10.0,NW,6.9,-,N/A,,Overcast,320,2013-01-20 19:53:00
2:13 PM,-0.4,-7.6,72,30.25,5.0,West,4.6,-,N/A,,Haze,280,2013-01-20 20:13:00
2:33 PM,1.4,-7.6,66,30.25,3.0,WNW,10.4,-,N/A,,Haze,290,2013-01-20 20:33:00
2:52 PM,1.4,-7.6,66,30.25,4.0,WNW,8.1,-,N/A,,Haze,290,2013-01-20 20:52:00
3:12 PM,1.4,-9.4,61,30.25,10.0,WNW,10.4,18.4,N/A,,Overcast,290,2013-01-20 21:12:00
3:32 PM,-0.4,-9.4,66,30.24,10.0,WNW,11.5,-,N/A,,Overcast,290,2013-01-20 21:32:00
3:53 PM,-0.4,-9.4,66,30.24,10.0,WNW,12.7,16.1,N/A,,Overcast,300,2013-01-20 21:53:00
4:12 PM,-0.4,-9.4,66,30.24,10.0,WNW,9.2,-,N/A,,Mostly Cloudy,290,2013-01-20 22:12:00
4:33 PM,-0.4,-11.2,60,30.23,10.0,WNW,8.1,-,N/A,,Scattered Clouds,300,2013-01-20 22:33:00
4:52 PM,-0.4,-11.2,60,30.24,10.0,West,6.9,-,N/A,,Clear,280,2013-01-20 22:52:00
5:13 PM,-2.2,-11.2,66,30.24,10.0,West,9.2,-,N/A,,Clear,270,2013-01-20 23:13:00
5:33 PM,-2.2,-11.2,66,30.24,10.0,West,11.5,16.1,N/A,,Clear,280,2013-01-20 23:33:00
5:53 PM,-4.0,-11.2,71,30.24,10.0,West,8.1,-,N/A,,Clear,280,2013-01-20 23:53:00
6:13 PM,-4.0,-13.0,65,30.24,10.0,West,9.2,-,N/A,,Clear,280,2013-01-21 00:13:00
6:33 PM,-5.8,-14.8,65,30.24,10.0,West,9.2,-,N/A,,Clear,280,2013-01-21 00:33:00
6:53 PM,-5.8,-14.8,65,30.24,10.0,West,6.9,-,N/A,,Clear,280,2013-01-21 00:53:00
7:12 PM,-5.8,-14.8,65,30.24,10.0,WNW,8.1,-,N/A,,Clear,290,2013-01-21 01:12:00
7:33 PM,-7.6,-14.8,71,30.24,10.0,WNW,8.1,16.1,N/A,,Clear,290,2013-01-21 01:33:00
7:53 PM,-7.6,-14.8,71,30.24,10.0,WNW,6.9,17.3,N/A,,Clear,290,2013-01-21 01:53:00
8:13 PM,-7.6,-14.8,71,30.24,10.0,WNW,5.8,-,N/A,,Clear,300,2013-01-21 02:13:00
8:33 PM,-7.6,-14.8,71,30.24,10.0,WNW,6.9,-,N/A,,Scattered Clouds,300,2013-01-21 02:33:00
8:53 PM,-7.6,-14.8,71,30.24,10.0,WNW,6.9,-,N/A,,Scattered Clouds,290,2013-01-21 02:53:00
9:13 PM,-9.4,-16.6,71,30.23,10.0,WNW,5.8,-,N/A,,Scattered Clouds,290,2013-01-21 03:13:00
9:33 PM,-9.4,-16.6,71,30.23,10.0,WNW,6.9,-,N/A,,Clear,290,2013-01-21 03:33:00
9:53 PM,-9.4,-16.6,71,30.23,10.0,WNW,6.9,-,N/A,,Clear,290,2013-01-21 03:53:00
10:12 PM,-9.4,-16.6,71,30.23,10.0,WNW,5.8,-,N/A,,Clear,290,2013-01-21 04:12:00
10:33 PM,-9.4,-16.6,71,30.24,5.0,WNW,6.9,-,N/A,,Haze,300,2013-01-21 04:33:00
10:53 PM,-9.4,-16.6,71,30.24,5.0,WNW,8.1,-,N/A,,Haze,300,2013-01-21 04:53:00
11:13 PM,-9.4,-18.4,65,30.24,4.0,WNW,8.1,17.3,N/A,,Haze,300,2013-01-21 05:13:00
11:33 PM,-11.2,-18.4,70,30.24,10.0,WNW,9.2,-,N/A,,Mostly Cloudy,300,2013-01-21 05:33:00
11:53 PM,-11.2,-20.2,64,30.24,10.0,WNW,5.8,-,N/A,,Clear,300,2013-01-21 05:53:00